SP5IZJ-2 Weather Reports


Display with metric or nautical units.
time (UTC)temp
F
wind
direction
speed
MPH
gust
MPH
rain 1hr
in
rain 24hr
in
rain mn
in
humidity
%
barometer
mb
20260510122522 74 68 0.0 6.0 0.00 0.00 0.00 31 1007.3
20260510112940 70 0 1.0 6.0 0.00 0.00 0.00 33 1008.0
20260510110057 72 23 1.0 7.0 0.00 0.00 0.00 32 1008.2
20260510101858 69 0 4.0 9.0 0.00 0.00 0.00 34 1008.5
20260510093659 72 0 0.0 5.0 0.00 0.00 0.00 33 1009.2
20260510093016 71 0 1.0 7.0 0.00 0.00 0.00 33 1009.4
20260510092259 73 0 1.0 5.0 0.00 0.00 0.00 33 1009.4
20260510091600 73 113 0.0 0.0 0.00 0.00 0.00 34 1009.4
20260510090859 73 23 0.0 0.0 0.00 0.00 0.00 35 1009.2
20260510090218 72 248 1.0 4.0 0.00 0.00 0.00 36 1009.4
20260510085544 72 359 0.0 0.0 0.00 0.00 0.00 38 1009.4
20260510082700 68 135 0.0 4.0 0.00 0.00 0.00 43 1009.7
20260510082000 67 225 1.0 4.0 0.00 0.00 0.00 45 1009.6
20260510080603 65 225 2.0 9.0 0.00 0.00 0.00 46 1009.7
20260510074546 64 359 0.0 0.0 0.00 0.00 0.00 47 1009.9
20260510073831 64 225 2.0 7.0 0.00 0.00 0.00 47 1010.1
20260510073146 64 225 3.0 8.0 0.00 0.00 0.00 47 1010.3
20260510072447 66 180 1.0 8.0 0.00 0.00 0.00 49 1010.4
20260510071748 65 225 0.0 5.0 0.00 0.00 0.00 51 1010.4
20260510070308 64 248 1.0 6.0 0.00 0.00 0.00 51 1010.3
20260510065602 64 248 1.0 6.0 0.00 0.00 0.00 52 1010.3
20260510064902 64 248 1.0 4.0 0.00 0.00 0.00 52 1010.2
20260510064203 65 248 0.0 3.0 0.00 0.00 0.00 52 1010.3
20260510062806 65 225 0.0 4.0 0.00 0.00 0.00 52 1010.4
20260510062103 66 248 0.0 1.0 0.00 0.00 0.00 52 1010.6
20260510061406 65 203 0.0 0.0 0.00 0.00 0.00 53 1010.6
20260510060706 65 203 0.0 0.0 0.00 0.00 0.00 53 1010.7
20260510060006 65 203 0.0 0.0 0.00 0.00 0.00 54 1010.4
20260510055306 65 203 0.0 0.0 0.00 0.00 0.00 55 1010.7
20260510054617 64 0 0.0 0.0 0.00 0.00 0.00 57 1010.7
20260510053947 62 0 0.0 0.0 0.00 0.00 0.00 59 1010.8
20260510053204 62 0 0.0 0.0 0.00 0.00 0.00 60 1010.7
20260510051823 60 225 0.0 0.0 0.00 0.00 0.00 65 1010.8
20260510050423 56 225 0.0 0.0 0.00 0.00 0.00 72 1010.8
20260510045705 55 225 0.0 0.0 0.00 0.00 0.00 78 1010.9
20260510045005 53 225 0.0 0.0 0.00 0.00 0.00 85 1010.9
20260510043606 49 225 0.0 0.0 0.00 0.00 0.00 92 1011.0
20260510042919 46 359 0.0 0.0 0.00 0.00 0.00 92 1011.2
20260510042209 44 225 0.0 0.0 0.00 0.00 0.00 92 1011.3
20260510041722 41 225 0.0 0.0 0.00 0.00 0.00 91 1011.2
20260510041506 41 225 0.0 0.0 0.00 0.00 0.00 91 1011.2
20260510040811 38 225 0.0 0.0 0.00 0.00 0.00 90 1011.2
20260510035418 37 359 0.0 0.0 0.00 0.00 0.00 90 1011.3
20260510034707 36 225 0.0 2.0 0.00 0.00 0.00 89 1011.4
20260510033307 35 225 0.0 0.0 0.00 0.00 0.00 89 1011.5
20260510032651 35 225 0.0 0.0 0.00 0.00 0.00 89 1011.5
20260510031914 35 225 0.0 0.0 0.00 0.00 0.00 89 1011.5
20260510031210 34 359 0.0 0.0 0.00 0.00 0.00 89 1011.6
20260510030508 212 359 0.0 0.0 0.00 0.00 0.00 100
20260510025808 33 359 0.0 0.0 0.00 0.00 0.00 88 1011.5
20260510025108 33 225 0.0 0.0 0.00 0.00 0.00 88 1011.6
20260510024409 32 225 0.0 0.0 0.00 0.00 0.00 88 1011.6
20260510023711 33 225 0.0 0.0 0.00 0.00 0.00 88 1011.6
20260510023009 33 225 0.0 0.0 0.00 0.00 0.00 88 1011.6
20260510021647 34 359 0.0 0.0 0.00 0.00 0.00 88 1011.6
20260510020918 212 359 0.0 0.0 0.00 0.00 0.00 100
20260510020239 33 225 0.0 0.0 0.00 0.00 0.00 88 1011.8
20260510020229 33 225 0.0 0.0 0.00 0.00 0.00 88 1011.8
20260510015511 33 225 0.0 0.0 0.00 0.00 0.00 87 1011.8
20260510014821 33 225 0.0 0.0 0.00 0.00 0.00 87 1011.8
20260510014143 33 225 0.0 0.0 0.00 0.00 0.00 87 1011.7
20260510013437 33 225 0.0 0.0 0.00 0.00 0.00 87 1011.8
20260510012719 34 225 0.0 0.0 0.00 0.00 0.00 87 1011.7
20260510011322 35 359 0.0 0.0 0.00 0.00 0.00 88 1011.9
20260510010656 35 359 0.0 0.0 0.00 0.00 0.00 87 1012.1
20260510005214 34 225 0.0 0.0 0.00 0.00 0.00 86 1012.3
20260510004518 34 225 0.0 0.0 0.00 0.00 0.00 86 1012.2
20260510003832 34 225 0.0 0.0 0.00 0.00 0.00 85 1012.2
20260510003114 35 225 0.0 0.0 0.00 0.00 0.00 85 1012.4
20260510002454 35 225 0.0 0.0 0.00 0.00 0.00 86 1012.5
20260510001713 35 225 0.0 0.0 0.00 0.00 0.00 86 1012.4
20260510001017 35 225 0.0 0.0 0.00 0.00 0.00 86 1012.4
20260510000326 35 225 0.0 0.0 0.00 0.00 0.00 86 1012.4
20260509235637 35 225 0.0 0.0 0.00 0.00 0.00 85 1012.6
20260509233558 36 359 0.0 0.0 0.00 0.00 0.00 85 1012.5
20260509232846 36 225 0.0 0.0 0.00 0.00 0.00 85 1012.5
20260509232129 37 225 0.0 0.0 0.00 0.00 0.00 85 1012.7
20260509231459 37 225 0.0 0.0 0.00 0.00 0.00 85 1012.8
20260509230059 37 225 0.0 0.0 0.00 0.00 0.00 84 1012.8
20260509224000 38 225 0.0 0.0 0.00 0.00 0.00 84 1012.8
20260509223254 38 225 0.0 0.0 0.00 0.00 0.00 84 1012.8
20260509222600 39 225 0.0 0.0 0.00 0.00 0.00 84 1012.8
20260509221900 39 225 0.0 0.0 0.00 0.00 0.00 84 1013.0
20260509221200 39 225 0.0 0.0 0.00 0.00 0.00 83 1013.0
20260509220438 40 225 0.0 0.0 0.00 0.00 0.00 84 1012.9
20260509215801 39 225 0.0 0.0 0.00 0.00 0.00 83 1013.0
20260509215101 39 225 0.0 0.0 0.00 0.00 0.00 82 1013.0
20260509213656 39 225 0.0 0.0 0.00 0.00 0.00 81 1013.0
20260509212305 40 225 0.0 0.0 0.00 0.00 0.00 80 1012.9
20260509210902 41 225 0.0 0.0 0.00 0.00 0.00 78 1013.0
20260509210203 42 225 0.0 0.0 0.00 0.00 0.00 79 1013.0
20260509205504 42 225 0.0 0.0 0.00 0.00 0.00 79 1013.0
20260509204802 42 225 0.0 0.0 0.00 0.00 0.00 79 1013.0
20260509203403 41 225 0.0 0.0 0.00 0.00 0.00 78 1013.0
20260509202703 41 225 0.0 0.0 0.00 0.00 0.00 75 1013.0
20260509195904 43 225 0.0 0.0 0.00 0.00 0.00 73 1013.0
20260509195134 44 225 0.0 0.0 0.00 0.00 0.00 73 1013.0
20260509194456 44 225 0.0 0.0 0.00 0.00 0.00 74 1013.1
20260509193805 45 225 0.0 0.0 0.00 0.00 0.00 73 1013.2
20260509192405 45 225 0.0 0.0 0.00 0.00 0.00 72 1013.0
20260509191705 46 225 0.0 0.0 0.00 0.00 0.00 70 1013.2
20260509191005 47 225 0.0 0.0 0.00 0.00 0.00 69 1013.2
20260509190305 47 225 0.0 0.0 0.00 0.00 0.00 68 1013.1
20260509185606 48 225 0.0 3.0 0.00 0.00 0.00 67 1012.9
20260509184905 49 225 1.0 4.0 0.00 0.00 0.00 67 1012.8
20260509184207 48 359 0.0 0.0 0.00 0.00 0.00 67 1012.9
20260509182743 49 225 0.0 0.0 0.00 0.00 0.00 64 1012.7
20260509182106 50 225 0.0 0.0 0.00 0.00 0.00 62 1012.7
20260509181402 51 225 0.0 0.0 0.00 0.00 0.00 60 1012.8
20260509180708 52 203 0.0 0.0 0.00 0.00 0.00 58 1012.5
20260509175308 55 225 1.0 5.0 0.00 0.00 0.00 53 1012.4
20260509174608 58 225 2.0 8.0 0.00 0.00 0.00 49 1012.5
20260509173831 61 225 0.0 3.0 0.00 0.00 0.00 47 1012.5
20260509173129 62 359 0.0 0.0 0.00 0.00 0.00 44 1012.2
20260509171800 64 203 1.0 5.0 0.00 0.00 0.00 41 1012.2
20260509171023 65 158 0.0 4.0 0.00 0.00 0.00 41 1012.3
20260509170356 66 359 0.0 0.0 0.00 0.00 0.00 41 1012.1
20260509165642 65 359 0.0 0.0 0.00 0.00 0.00 42 1012.1
20260509165015 65 203 0.0 3.0 0.00 0.00 0.00 40 1012.0
20260509165008 65 203 0.0 3.0 0.00 0.00 0.00 40 1012.0
20260509164242 69 180 1.0 8.0 0.00 0.00 0.00 40 1012.0
20260509163601 68 203 3.0 9.0 0.00 0.00 0.00 40 1012.1
20260509162210 67 158 0.0 3.0 0.00 0.00 0.00 46 1012.0
20260509161510 61 180 0.0 1.0 0.00 0.00 0.00 50 1012.0
20260509160746 63 180 0.0 0.0 0.00 0.00 0.00 48 1012.2
20260509155326 67 180 1.0 4.0 0.00 0.00 0.00 44 1012.0
20260509154701 70 359 0.0 0.0 0.00 0.00 0.00 41 1012.2
20260509153926 73 135 0.0 2.0 0.00 0.00 0.00 40 1012.2
20260509153310 73 158 2.0 8.0 0.00 0.00 0.00 41 1012.0
20260509151212 68 23 0.0 0.0 0.00 0.00 0.00 45 1012.1
20260509145026 64 158 0.0 0.0 0.00 0.00 0.00 53 1012.0
20260509143704 59 23 0.0 0.0 0.00 0.00 0.00 57 1011.9
20260509143012 58 359 0.0 0.0 0.00 0.00 0.00 56 1012.0
20260509142235 59 23 0.0 0.0 0.00 0.00 0.00 56 1011.9
20260509140139 60 68 0.0 0.0 0.00 0.00 0.00 55 1011.9
20260509135439 59 23 0.0 0.0 0.00 0.00 0.00 56 1012.0
20260509132656 60 0 0.0 1.0 0.00 0.00 0.00 52 1012.0
20260509131959 62 0 0.0 4.0 0.00 0.00 0.00 51 1012.1
20260509131237 62 90 0.0 3.0 0.00 0.00 0.00 51 1011.9
20260509125829 63 135 0.0 0.0 0.00 0.00 0.00 51 1012.1
20260509125129 63 45 0.0 1.0 0.00 0.00 0.00 50 1012.2
20260509124457 65 68 1.0 4.0 0.00 0.00 0.00 49 1012.3
20260509123756 66 45 0.0 2.0 0.00 0.00 0.00 49 1012.2